Location: Unspecified
(0.0000°N, 0.0000°E)
Time: 05:35:35
(UTC+00:00)

Kosmos-2233 - Pass Details

Date: 21 February 2024
Orbit: 950 x 1007 km, 82.9° (Epoch: 24 April)

Event Time Altitude Azimuth Distance (km) Brightness Sun altitude
Rises 20:14:17 0° 195° (SSW) 3,621 8.8 -29.6°
Reaches altitude 10° 20:16:51 10° 200° (SSW) 2,677 8.1 -30.2°
Maximum altitude 20:22:41 48° 273° (W) 1,237 6.3 -31.7°
Enters shadow 20:27:50 14° 343° (NNW) 2,439 7.6 -32.9°
